Location: Maynard F. Jordan Observatory
(44.9000°N, 68.6700°W)
Time: 00:51:43
(UTC-04:00)

Cosmos 2297 Rocket - Visible Passes

Search period start: 28 July 2016 00:00
Search period end: 07 August 2016 00:00
Orbit: 841 x 842 km, 71.0° (Epoch: 27 July)

Date Brightness Start Highest point End Pass type
(mag) Time Alt. Az. Time Alt. Az. Time Alt. Az.
28 Jul 4.1 01:13:10 10° N 01:17:53 26° NE 01:22:36 10° ESE visible
28 Jul 2.3 02:56:46 10° NNW 03:02:18 56° WSW 03:05:19 26° S visible
29 Jul 4.1 00:58:06 10° N 01:02:46 25° NE 01:07:24 10° ESE visible
29 Jul 2.2 02:41:39 10° NNW 02:47:13 59° WSW 02:49:22 36° S visible
30 Jul 4.1 00:43:04 10° N 00:47:39 24° NE 00:51:54 11° E visible
30 Jul 2.2 02:26:33 10° NNW 02:32:08 62° WSW 02:33:38 46° SSW visible
31 Jul 4.1 00:28:01 10° N 00:32:31 23° NE 00:36:17 13° E visible
31 Jul 2.1 02:11:27 10° NNW 02:17:04 65° WSW 02:18:02 55° SSW visible
01 Aug 4.1 00:12:59 10° N 00:17:24 23° NE 00:20:48 14° E visible
01 Aug 2.1 01:56:21 10° NNW 02:01:59 69° WSW 02:02:33 64° SSW visible
01 Aug 4.2 23:57:57 10° N 00:02:16 22° NE 00:05:24 14° E visible
02 Aug 2.0 01:41:15 10° NNW 01:46:54 72° WSW 01:47:10 71° SW visible
02 Aug 4.2 23:42:55 10° N 23:47:09 21° NE 23:50:06 14° E visible
03 Aug 2.0 01:26:10 10° NNW 01:31:50 76° WSW 01:31:52 76° WSW visible
03 Aug 4.2 23:27:53 10° N 23:32:01 20° NE 23:34:50 14° E visible
04 Aug 2.1 01:11:04 10° NNW 01:16:37 79° W 01:16:37 79° W visible
04 Aug 4.4 02:58:09 10° WNW 02:58:23 10° W 02:58:23 10° W visible
04 Aug 4.2 23:12:52 10° N 23:16:53 19° NE 23:19:40 14° E visible
05 Aug 2.1 00:55:59 10° NNW 01:01:26 81° WNW 01:01:26 81° WNW visible
05 Aug 4.4 02:42:42 10° WNW 02:43:12 11° W 02:43:12 11° W visible
05 Aug 4.2 22:57:51 10° N 23:01:44 19° NE 23:04:31 14° ENE visible
06 Aug 2.1 00:40:53 10° NNW 00:46:17 81° NW 00:46:17 81° NW visible
06 Aug 4.4 02:27:19 10° WNW 02:28:04 11° WNW 02:28:04 11° WNW visible
06 Aug 4.2 22:42:50 10° N 22:46:37 18° NE 22:49:25 13° ENE visible
